Location: Newark
(44.3681°N, 100.3364°W)
Time: 13:29:06
(UTC+00:00)

S-56A Canister/Altair - Pass Details

Date: 05 March 2020
Orbit: 634 x 2498 km, 38.9° (Epoch: 04 April)

Event Time Altitude Azimuth Distance (km) Brightness Sun altitude
Rises 16:44:23 0° 265° (W) 5,106 11.4 32.2°
Reaches altitude 10° 16:47:23 10° 263° (W) 4,325 11.2 32.6°
Maximum altitude 16:59:47 70° 183° (S) 2,467 11.0 33.9°
Drops below altitude 10° 17:14:51 10° 104° (ESE) 5,143 12.4 35.3°
Sets 17:18:46 0° 103° (ESE) 6,090 12.6 35.7°
